Weather History for Carlsbad, NM

Change the Weather History Date:

Monday, October 15, 2012

  Actual Average Record
Temperature  
Mean Temperature 64 °F -  
Max Temperature 79 °F 78 °F 94 °F (1968)
Min Temperature 50 °F 48 °F 34 °F (1966)
Degree Days  
Heating Degree Days 1    
Growing Degree Days 14 (Base 50)    
Moisture  
Dew Point 42 °F    
Average Humidity 49    
Maximum Humidity 74    
Minimum Humidity 24    
Precipitation  
Precipitation 0.00 in - - ()
Sea Level Pressure  
Sea Level Pressure 29.98 in    
Wind  
Wind Speed 4 mph (SSE)    
Max Wind Speed 13 mph    
Max Gust Speed 17 mph    
Visibility 10 miles    
Events      
Averages and records for this station are not official NWS values.
T = Trace of Precipitation, MM = Missing Value Source: NWS Daily Summary

Daily Weather History Graph

Daily Weather History Graph

Search for Another Location

Airport:

Trip Planner

Search our weather history database for the weather conditions in past years. The results will help you decide how hot, cold, wet, or windy it might be!

Date:

Astronomy

Oct. 15, 2012 Rise Set
Actual Time 7:01 AM MDT 6:23 PM MDT
Civil Twilight 6:36 AM MDT 6:48 PM MDT
Nautical Twilight 6:07 AM MDT 7:16 PM MDT
Astronomical Twilight 5:39 AM MDT 7:45 PM MDT
Moon 7:11 AM MDT (10/15) 6:30 PM MDT (10/15)
Length of Visible Light 12h 12m
Length of Day
11h 22m
New Moon, 0% of the Moon is Illuminated
Oct 15
New Moon
Oct 21
First Quarter
Oct 29
Full
Nov 6
Last Quarter
Nov 13
New

Hourly Weather History & Observations

Time (MDT) Temp. Dew Point Humidity Pressure Visibility Wind Dir Wind Speed Gust Speed Precip Events Conditions
12:53 AM 52.0 °F 44.1 °F 74% 30.10 in 10.0 mi SSW 3.5 mph - N/A   Clear
1:53 AM 54.0 °F 43.0 °F 66% 30.08 in 10.0 mi Calm Calm - N/A   Clear
2:53 AM 55.0 °F 42.1 °F 62% 30.07 in 10.0 mi Calm Calm - N/A   Clear
3:53 AM 52.0 °F 42.1 °F 69% 30.06 in 10.0 mi Calm Calm - N/A   Clear
4:53 AM 51.1 °F 43.0 °F 74% 30.07 in 10.0 mi Calm Calm - N/A   Clear
5:53 AM 51.1 °F 43.0 °F 74% 30.08 in 10.0 mi North 3.5 mph - N/A   Clear
6:53 AM 50.0 °F 42.1 °F 74% 30.09 in 10.0 mi North 4.6 mph - N/A   Clear
7:53 AM 51.1 °F 43.0 °F 74% 30.10 in 10.0 mi Calm Calm - N/A   Clear
8:53 AM 57.9 °F 42.1 °F 56% 30.11 in 10.0 mi Calm Calm - N/A   Clear
9:53 AM 63.0 °F 42.1 °F 46% 30.10 in 10.0 mi ESE 3.5 mph - N/A   Clear
10:53 AM 69.1 °F 43.0 °F 39% 30.06 in 10.0 mi SSE 10.4 mph - N/A   Clear
11:53 AM 73.0 °F 39.9 °F 30% 30.04 in 10.0 mi SSE 9.2 mph - N/A   Clear
12:53 PM 75.9 °F 37.0 °F 24% 29.99 in 10.0 mi South 10.4 mph - N/A   Clear
1:53 PM 75.9 °F 37.0 °F 24% 29.94 in 10.0 mi SE 9.2 mph - N/A   Clear
2:53 PM 78.1 °F 39.0 °F 25% 29.90 in 10.0 mi SSE 9.2 mph 17.3 mph N/A   Clear
3:53 PM 77.0 °F 39.0 °F 25% 29.89 in 10.0 mi SSE 12.7 mph - N/A   Clear
4:53 PM 75.9 °F 39.9 °F 27% 29.88 in 10.0 mi SE 10.4 mph - N/A   Clear
5:53 PM 73.0 °F 43.0 °F 34% 29.88 in 10.0 mi SE 5.8 mph - N/A   Clear
6:53 PM 66.9 °F 44.1 °F 44% 29.89 in 10.0 mi SSE 4.6 mph - N/A   Clear
7:53 PM 64.9 °F 45.0 °F 48% 29.89 in 10.0 mi South 5.8 mph - N/A   Clear
8:53 PM 64.9 °F 44.1 °F 47% 29.88 in 10.0 mi Calm Calm - N/A   Clear
9:53 PM 64.9 °F 44.1 °F 47% 29.86 in 10.0 mi South 6.9 mph - N/A   Clear
10:53 PM 66.0 °F 44.1 °F 45% 29.85 in 10.0 mi SE 5.8 mph - N/A   Clear
11:53 PM 64.0 °F 45.0 °F 50% 29.83 in 10.0 mi South 5.8 mph - N/A   Clear